Year,Month,Day,Hour,Minute,Value (Times are PST for windspeed in km/hr)
2017,06,16,00,00,0.00
2017,06,16,00,01,0.90
2017,06,16,00,02,1.80
2017,06,16,00,03,2.40
2017,06,16,00,04,2.20
2017,06,16,00,05,2.00
2017,06,16,00,06,0.50
2017,06,16,00,07,0.30
2017,06,16,00,08,0.40
2017,06,16,00,09,0.00
2017,06,16,00,10,0.00
2017,06,16,00,11,0.00
2017,06,16,00,12,0.00
2017,06,16,00,13,0.00
2017,06,16,00,14,0.00
2017,06,16,00,15,0.00
2017,06,16,00,16,0.00
2017,06,16,00,17,0.00
2017,06,16,00,18,0.00
2017,06,16,00,19,0.00
2017,06,16,00,20,0.00
2017,06,16,00,21,0.00
2017,06,16,00,22,0.00
2017,06,16,00,23,0.00
2017,06,16,00,24,0.00
2017,06,16,00,25,0.00
2017,06,16,00,26,0.00
2017,06,16,00,27,0.00
2017,06,16,00,28,0.00
2017,06,16,00,29,0.00
2017,06,16,00,30,0.00
2017,06,16,00,31,0.00
2017,06,16,00,32,0.00
2017,06,16,00,33,0.00
2017,06,16,00,34,0.00
2017,06,16,00,35,0.00
2017,06,16,00,36,0.00
2017,06,16,00,37,0.00
2017,06,16,00,38,0.00
2017,06,16,00,39,0.00
2017,06,16,00,40,0.00
2017,06,16,00,41,0.00
2017,06,16,00,42,0.00
2017,06,16,00,43,0.00
2017,06,16,00,44,0.00
2017,06,16,00,45,0.00
2017,06,16,00,46,0.00
2017,06,16,00,47,0.00
2017,06,16,00,48,0.00
2017,06,16,00,49,0.00
2017,06,16,00,50,0.00
2017,06,16,00,51,0.00
2017,06,16,00,52,0.00
2017,06,16,00,53,0.00
2017,06,16,00,54,0.00
2017,06,16,00,55,0.00
2017,06,16,00,56,0.00
2017,06,16,00,57,0.00
2017,06,16,00,58,0.00
2017,06,16,00,59,0.00
2017,06,16,01,00,0.00
2017,06,16,01,01,0.00
2017,06,16,01,02,0.00
2017,06,16,01,03,0.00
2017,06,16,01,04,0.00
2017,06,16,01,05,0.00
2017,06,16,01,06,0.00
2017,06,16,01,07,0.00
2017,06,16,01,08,0.00
2017,06,16,01,09,0.00
2017,06,16,01,10,0.00
2017,06,16,01,11,0.00
2017,06,16,01,12,0.00
2017,06,16,01,13,0.00
2017,06,16,01,14,0.00
2017,06,16,01,15,0.00
2017,06,16,01,16,0.00
2017,06,16,01,17,0.00
2017,06,16,01,18,0.00
2017,06,16,01,19,0.00
2017,06,16,01,20,0.00
2017,06,16,01,21,2.70
2017,06,16,01,22,3.90
2017,06,16,01,23,3.90
2017,06,16,01,24,3.70
2017,06,16,01,25,3.30
2017,06,16,01,26,2.00
2017,06,16,01,27,1.40
2017,06,16,01,28,1.30
2017,06,16,01,29,1.40
2017,06,16,01,30,0.80
2017,06,16,01,31,1.00
2017,06,16,01,32,1.10
2017,06,16,01,33,1.30
2017,06,16,01,34,0.80
2017,06,16,01,35,1.90
2017,06,16,01,36,2.70
2017,06,16,01,37,3.00
2017,06,16,01,38,2.70
2017,06,16,01,39,2.70
2017,06,16,01,40,5.10
2017,06,16,01,41,5.20
2017,06,16,01,42,4.50
2017,06,16,01,43,3.60
2017,06,16,01,44,3.10
2017,06,16,01,45,2.90
2017,06,16,01,46,2.70
2017,06,16,01,47,4.30
2017,06,16,01,48,4.90
2017,06,16,01,49,4.90
2017,06,16,01,50,5.40
2017,06,16,01,51,5.20
2017,06,16,01,52,5.60
2017,06,16,01,53,5.10
2017,06,16,01,54,4.10
2017,06,16,01,55,3.40
2017,06,16,01,56,2.30
2017,06,16,01,57,2.30
2017,06,16,01,58,2.10
2017,06,16,01,59,2.10
2017,06,16,02,00,3.20
2017,06,16,02,01,4.40
2017,06,16,02,02,2.80
2017,06,16,02,03,2.50
2017,06,16,02,04,3.60
2017,06,16,02,05,2.70
2017,06,16,02,06,2.40
2017,06,16,02,07,1.90
2017,06,16,02,08,2.00
2017,06,16,02,09,1.80
2017,06,16,02,10,1.80
2017,06,16,02,11,1.60
2017,06,16,02,12,0.60
2017,06,16,02,13,0.10
2017,06,16,02,14,0.10
2017,06,16,02,15,0.20
2017,06,16,02,16,0.40
2017,06,16,02,17,0.40
2017,06,16,02,18,0.00
2017,06,16,02,19,0.20
2017,06,16,02,20,0.00
2017,06,16,02,21,0.00
2017,06,16,02,22,0.00
2017,06,16,02,23,0.00
2017,06,16,02,24,0.00
2017,06,16,02,25,0.00
2017,06,16,02,26,0.00
2017,06,16,02,27,0.00
2017,06,16,02,28,0.00
2017,06,16,02,29,0.00
2017,06,16,02,30,0.00
2017,06,16,02,31,0.00
2017,06,16,02,32,0.00
2017,06,16,02,33,0.00
2017,06,16,02,34,0.00
2017,06,16,02,35,0.00
2017,06,16,02,36,0.00
2017,06,16,02,37,0.00
2017,06,16,02,38,0.00
2017,06,16,02,39,0.00
2017,06,16,02,40,0.00
2017,06,16,02,41,0.00
2017,06,16,02,42,1.20
2017,06,16,02,43,0.50
2017,06,16,02,44,0.30
2017,06,16,02,45,0.00
2017,06,16,02,46,0.00
2017,06,16,02,47,0.80
2017,06,16,02,48,0.90
2017,06,16,02,49,0.70
2017,06,16,02,50,0.90
2017,06,16,02,51,0.30
2017,06,16,02,52,0.00
2017,06,16,02,53,0.00
2017,06,16,02,54,0.00
2017,06,16,02,55,0.60
2017,06,16,02,56,2.10
2017,06,16,02,57,2.50
2017,06,16,02,58,2.90
2017,06,16,02,59,3.80
2017,06,16,03,00,3.30
2017,06,16,03,01,3.60
2017,06,16,03,02,1.80
2017,06,16,03,03,0.00
2017,06,16,03,04,0.00
2017,06,16,03,05,1.20
2017,06,16,03,06,1.60
2017,06,16,03,07,0.20
2017,06,16,03,08,0.00
2017,06,16,03,09,0.30
2017,06,16,03,10,0.90
2017,06,16,03,11,1.00
2017,06,16,03,12,0.00
2017,06,16,03,13,0.00
2017,06,16,03,14,0.00
2017,06,16,03,15,0.00
2017,06,16,03,16,0.00
2017,06,16,03,17,0.00
2017,06,16,03,18,0.00
2017,06,16,03,19,0.80
2017,06,16,03,20,0.70
2017,06,16,03,21,1.40
2017,06,16,03,22,1.60
2017,06,16,03,23,2.00
2017,06,16,03,24,2.20
2017,06,16,03,25,2.40
2017,06,16,03,26,2.10
2017,06,16,03,27,1.40
2017,06,16,03,28,0.40
2017,06,16,03,29,0.00
2017,06,16,03,30,0.10
2017,06,16,03,31,0.20
2017,06,16,03,32,1.40
2017,06,16,03,33,1.60
2017,06,16,03,34,1.20
2017,06,16,03,35,1.30
2017,06,16,03,36,0.70
2017,06,16,03,37,1.10
2017,06,16,03,38,1.60
2017,06,16,03,39,1.60
2017,06,16,03,40,1.60
2017,06,16,03,41,2.00
2017,06,16,03,42,2.10
2017,06,16,03,43,1.30
2017,06,16,03,44,1.30
2017,06,16,03,45,0.30
2017,06,16,03,46,0.00
2017,06,16,03,47,0.00
2017,06,16,03,48,0.00
2017,06,16,03,49,0.00
2017,06,16,03,50,0.00
2017,06,16,03,51,0.00
2017,06,16,03,52,0.00
2017,06,16,03,53,0.00
2017,06,16,03,54,0.00
2017,06,16,03,55,0.00
2017,06,16,03,56,0.00
2017,06,16,03,57,0.00
2017,06,16,03,58,0.00
2017,06,16,03,59,0.00
2017,06,16,04,00,0.00
2017,06,16,04,01,0.00
2017,06,16,04,02,0.00
2017,06,16,04,03,0.00
2017,06,16,04,04,0.00
2017,06,16,04,05,0.00
2017,06,16,04,06,0.00
2017,06,16,04,07,0.00
2017,06,16,04,08,0.00
2017,06,16,04,09,0.00
2017,06,16,04,10,0.00
2017,06,16,04,11,0.00
2017,06,16,04,12,0.00
2017,06,16,04,13,0.00
2017,06,16,04,14,0.00
2017,06,16,04,15,0.00
2017,06,16,04,16,0.00
2017,06,16,04,17,0.00
2017,06,16,04,18,0.00
2017,06,16,04,19,0.00
2017,06,16,04,20,0.00
2017,06,16,04,21,0.00
2017,06,16,04,22,0.00
2017,06,16,04,23,0.00
2017,06,16,04,24,0.00
2017,06,16,04,25,0.00
2017,06,16,04,26,0.00
2017,06,16,04,27,0.00
2017,06,16,04,28,0.00
2017,06,16,04,29,0.00
2017,06,16,04,30,0.00
2017,06,16,04,31,0.00
2017,06,16,04,32,0.00
2017,06,16,04,33,0.00
2017,06,16,04,34,0.00
2017,06,16,04,35,0.00
2017,06,16,04,36,0.00
2017,06,16,04,37,0.00
2017,06,16,04,38,0.00
2017,06,16,04,39,0.00
2017,06,16,04,40,0.00
2017,06,16,04,41,0.00
2017,06,16,04,42,0.00
2017,06,16,04,43,0.00
2017,06,16,04,44,0.00
2017,06,16,04,45,0.00
2017,06,16,04,46,0.00
2017,06,16,04,47,0.00
2017,06,16,04,48,0.00
2017,06,16,04,49,0.00
2017,06,16,04,50,0.00
2017,06,16,04,51,1.50
2017,06,16,04,52,2.10
2017,06,16,04,53,2.20
2017,06,16,04,54,1.90
2017,06,16,04,55,2.70
2017,06,16,04,56,1.80
2017,06,16,04,57,1.80
2017,06,16,04,58,0.90
2017,06,16,04,59,0.50
2017,06,16,05,00,0.70
2017,06,16,05,01,0.30
2017,06,16,05,02,1.00
2017,06,16,05,03,0.20
2017,06,16,05,04,0.00
2017,06,16,05,05,0.00
2017,06,16,05,06,0.00
2017,06,16,05,07,0.00
2017,06,16,05,08,0.00
2017,06,16,05,09,0.00
2017,06,16,05,10,0.00
2017,06,16,05,11,0.00
2017,06,16,05,12,0.00
2017,06,16,05,13,0.00
2017,06,16,05,14,0.00
2017,06,16,05,15,0.00
2017,06,16,05,16,0.00
2017,06,16,05,17,0.00
2017,06,16,05,18,0.00
2017,06,16,05,19,0.00
2017,06,16,05,20,0.00
2017,06,16,05,21,0.00
2017,06,16,05,22,0.00
2017,06,16,05,23,0.00
2017,06,16,05,24,0.00
2017,06,16,05,25,0.00
2017,06,16,05,26,0.00
2017,06,16,05,27,0.00
2017,06,16,05,28,0.00
2017,06,16,05,29,0.00
2017,06,16,05,30,0.00
2017,06,16,05,31,0.00
2017,06,16,05,32,0.00
2017,06,16,05,33,0.00
2017,06,16,05,34,0.00
2017,06,16,05,35,0.00
2017,06,16,05,36,0.00
2017,06,16,05,37,0.00
2017,06,16,05,38,0.00
2017,06,16,05,39,0.00
2017,06,16,05,40,0.00
2017,06,16,05,41,0.00
2017,06,16,05,42,0.00
2017,06,16,05,43,0.00
2017,06,16,05,44,0.00
2017,06,16,05,45,0.00
2017,06,16,05,46,0.00
2017,06,16,05,47,0.00
2017,06,16,05,48,0.00
2017,06,16,05,49,0.00
2017,06,16,05,50,0.00
2017,06,16,05,51,0.00
2017,06,16,05,52,0.00
2017,06,16,05,53,0.00
2017,06,16,05,54,0.00
2017,06,16,05,55,0.00
2017,06,16,05,56,0.00
2017,06,16,05,57,0.00
2017,06,16,05,58,0.00
2017,06,16,05,59,0.00
2017,06,16,06,00,0.00
2017,06,16,06,01,0.00
2017,06,16,06,02,0.00
2017,06,16,06,03,0.00
2017,06,16,06,04,0.00
2017,06,16,06,05,0.00
2017,06,16,06,06,0.00
2017,06,16,06,07,0.00
2017,06,16,06,08,0.00
2017,06,16,06,09,0.00
2017,06,16,06,10,0.00
2017,06,16,06,11,0.00
2017,06,16,06,12,0.00
2017,06,16,06,13,0.00
2017,06,16,06,14,0.00
2017,06,16,06,15,0.00
2017,06,16,06,16,0.00
2017,06,16,06,17,0.00
2017,06,16,06,18,0.00
2017,06,16,06,19,0.00
2017,06,16,06,20,0.00
2017,06,16,06,21,0.00
2017,06,16,06,22,0.00
2017,06,16,06,23,0.00
2017,06,16,06,24,0.00
2017,06,16,06,25,2.50
2017,06,16,06,26,2.20
2017,06,16,06,27,1.60
2017,06,16,06,28,1.40
2017,06,16,06,29,0.90
2017,06,16,06,30,0.90
2017,06,16,06,31,1.00
2017,06,16,06,32,0.60
2017,06,16,06,33,1.60
2017,06,16,06,34,2.40
2017,06,16,06,35,1.70
2017,06,16,06,36,1.70
2017,06,16,06,37,3.10
2017,06,16,06,38,2.20
2017,06,16,06,39,2.90
2017,06,16,06,40,3.20
2017,06,16,06,41,4.30
2017,06,16,06,42,3.40
2017,06,16,06,43,3.00
2017,06,16,06,44,4.90
2017,06,16,06,45,4.40
2017,06,16,06,46,5.20
2017,06,16,06,47,3.90
2017,06,16,06,48,5.30
2017,06,16,06,49,5.20
2017,06,16,06,50,3.40
2017,06,16,06,51,3.80
2017,06,16,06,52,3.90
2017,06,16,06,53,3.30
2017,06,16,06,54,2.30
2017,06,16,06,55,3.40
2017,06,16,06,56,2.30
2017,06,16,06,57,2.40
2017,06,16,06,58,1.80
2017,06,16,06,59,3.00
2017,06,16,07,00,3.50
2017,06,16,07,01,3.90
2017,06,16,07,02,4.00
2017,06,16,07,03,3.30
2017,06,16,07,04,2.50
2017,06,16,07,05,3.50
2017,06,16,07,06,2.60
2017,06,16,07,07,3.60
2017,06,16,07,08,3.80
2017,06,16,07,09,3.90
2017,06,16,07,10,5.20
2017,06,16,07,11,4.40
2017,06,16,07,12,5.30
2017,06,16,07,13,5.70
2017,06,16,07,14,3.90
2017,06,16,07,15,4.40
2017,06,16,07,16,5.10
2017,06,16,07,17,6.90
2017,06,16,07,18,5.20
2017,06,16,07,19,6.10
2017,06,16,07,20,7.60
2017,06,16,07,21,8.50
2017,06,16,07,22,8.10
2017,06,16,07,23,7.00
2017,06,16,07,24,8.50
2017,06,16,07,25,6.10
2017,06,16,07,26,3.00
2017,06,16,07,27,5.10
2017,06,16,07,28,6.30
2017,06,16,07,29,6.60
2017,06,16,07,30,6.70
2017,06,16,07,31,6.30
2017,06,16,07,32,5.70
2017,06,16,07,33,6.40
2017,06,16,07,34,4.60
2017,06,16,07,35,4.50
2017,06,16,07,36,6.60
2017,06,16,07,37,2.90
2017,06,16,07,38,4.10
2017,06,16,07,39,5.90
2017,06,16,07,40,4.00
2017,06,16,07,41,5.60
2017,06,16,07,42,4.90
2017,06,16,07,43,7.40
2017,06,16,07,44,4.60
2017,06,16,07,45,4.20
2017,06,16,07,46,8.10
2017,06,16,07,47,9.80
2017,06,16,07,48,8.10
2017,06,16,07,49,5.60
2017,06,16,07,50,3.90
2017,06,16,07,51,4.80
2017,06,16,07,52,5.40
2017,06,16,07,53,4.90
2017,06,16,07,54,4.60
2017,06,16,07,55,5.80
2017,06,16,07,56,2.00
2017,06,16,07,57,4.90
2017,06,16,07,58,3.60
2017,06,16,07,59,2.80
2017,06,16,08,00,5.50
2017,06,16,08,01,6.30
2017,06,16,08,02,4.70
2017,06,16,08,03,6.40
2017,06,16,08,04,7.00
2017,06,16,08,05,6.00
2017,06,16,08,06,4.90
2017,06,16,08,07,10.10
2017,06,16,08,08,3.50
2017,06,16,08,09,2.70
2017,06,16,08,10,4.10
2017,06,16,08,11,3.50
2017,06,16,08,12,8.80
2017,06,16,08,13,10.00
2017,06,16,08,14,8.10
2017,06,16,08,15,6.40
2017,06,16,08,16,5.70
2017,06,16,08,17,3.90
2017,06,16,08,18,4.30
2017,06,16,08,19,5.20
2017,06,16,08,20,3.30
2017,06,16,08,21,5.20
2017,06,16,08,22,4.00
2017,06,16,08,23,4.80
2017,06,16,08,24,5.50
2017,06,16,08,25,4.90
2017,06,16,08,26,4.90
2017,06,16,08,27,5.80
2017,06,16,08,28,6.80
2017,06,16,08,29,6.20
2017,06,16,08,30,4.80
2017,06,16,08,31,8.30
2017,06,16,08,32,5.30
2017,06,16,08,33,5.00
2017,06,16,08,34,4.90
2017,06,16,08,35,5.40
2017,06,16,08,36,4.50
2017,06,16,08,37,7.60
2017,06,16,08,38,8.40
2017,06,16,08,39,7.80
2017,06,16,08,40,7.20
2017,06,16,08,41,4.80
2017,06,16,08,42,6.00
2017,06,16,08,43,5.60
2017,06,16,08,44,8.10
2017,06,16,08,45,10.10
2017,06,16,08,46,7.70
2017,06,16,08,47,4.30
2017,06,16,08,48,9.70
2017,06,16,08,49,5.80
2017,06,16,08,50,8.40
2017,06,16,08,51,8.50
2017,06,16,08,52,9.90
2017,06,16,08,53,7.60
2017,06,16,08,54,8.60
2017,06,16,08,55,5.10
2017,06,16,08,56,8.80
2017,06,16,08,57,11.00
2017,06,16,08,58,11.70
2017,06,16,08,59,9.50
2017,06,16,09,00,6.70
2017,06,16,09,01,4.20
2017,06,16,09,02,3.90
2017,06,16,09,03,11.00
2017,06,16,09,04,10.90
2017,06,16,09,05,10.60
2017,06,16,09,06,10.10
2017,06,16,09,07,8.30
2017,06,16,09,08,7.50
2017,06,16,09,09,9.00
2017,06,16,09,10,8.80
2017,06,16,09,11,8.40
2017,06,16,09,12,9.10
2017,06,16,09,13,6.60
2017,06,16,09,14,4.80
2017,06,16,09,15,7.00
2017,06,16,09,16,11.40
2017,06,16,09,17,12.90
2017,06,16,09,18,14.50
2017,06,16,09,19,8.90
2017,06,16,09,20,8.50
2017,06,16,09,21,8.90
2017,06,16,09,22,12.60
2017,06,16,09,23,12.20
2017,06,16,09,24,10.90
2017,06,16,09,25,15.60
2017,06,16,09,26,9.30
2017,06,16,09,27,15.60
2017,06,16,09,28,15.30
2017,06,16,09,29,14.10
2017,06,16,09,30,14.20
2017,06,16,09,31,10.20
2017,06,16,09,32,8.20
2017,06,16,09,33,8.00
2017,06,16,09,34,9.70
2017,06,16,09,35,11.20
2017,06,16,09,36,9.20
2017,06,16,09,37,11.60
2017,06,16,09,38,7.50
2017,06,16,09,39,11.10
2017,06,16,09,40,8.50
2017,06,16,09,41,8.30
2017,06,16,09,42,11.10
2017,06,16,09,43,14.50
2017,06,16,09,44,13.80
2017,06,16,09,45,10.10
2017,06,16,09,46,9.70
2017,06,16,09,47,11.60
2017,06,16,09,48,7.60
2017,06,16,09,49,6.40
2017,06,16,09,50,10.90
2017,06,16,09,51,6.20
2017,06,16,09,52,11.60
2017,06,16,09,53,14.50
2017,06,16,09,54,15.90
2017,06,16,09,55,9.10
2017,06,16,09,56,13.50
2017,06,16,09,57,11.60
2017,06,16,09,58,12.10
2017,06,16,09,59,8.60
2017,06,16,10,00,12.90
2017,06,16,10,01,13.40
2017,06,16,10,02,8.20
2017,06,16,10,03,11.90
2017,06,16,10,04,12.40
2017,06,16,10,05,11.10
2017,06,16,10,06,12.30
2017,06,16,10,07,7.50
2017,06,16,10,08,8.10
2017,06,16,10,09,11.60
2017,06,16,10,10,6.20
2017,06,16,10,11,9.40
2017,06,16,10,12,8.20
2017,06,16,10,13,7.20
2017,06,16,10,14,7.70
2017,06,16,10,15,9.10
2017,06,16,10,16,7.30
2017,06,16,10,17,3.50
2017,06,16,10,18,5.40
2017,06,16,10,19,6.30
2017,06,16,10,20,9.20
2017,06,16,10,21,7.60
2017,06,16,10,22,8.20
2017,06,16,10,23,8.50
2017,06,16,10,24,9.50
2017,06,16,10,25,7.70
2017,06,16,10,26,8.60
2017,06,16,10,27,3.40
2017,06,16,10,28,7.00
2017,06,16,10,29,10.00
2017,06,16,10,30,9.40
2017,06,16,10,31,7.70
2017,06,16,10,32,11.20
2017,06,16,10,33,8.70
2017,06,16,10,34,14.80
2017,06,16,10,35,6.70
2017,06,16,10,36,12.30
2017,06,16,10,37,13.40
2017,06,16,10,38,8.20
2017,06,16,10,39,8.90
2017,06,16,10,40,8.10
2017,06,16,10,41,8.10
2017,06,16,10,42,11.00
2017,06,16,10,43,15.60
2017,06,16,10,44,7.90
2017,06,16,10,45,9.70
2017,06,16,10,46,4.80
2017,06,16,10,47,4.80
2017,06,16,10,48,7.80
2017,06,16,10,49,11.40
2017,06,16,10,50,9.50
2017,06,16,10,51,9.40
2017,06,16,10,52,6.10
2017,06,16,10,53,9.20
2017,06,16,10,54,7.00
2017,06,16,10,55,4.80
2017,06,16,10,56,6.20
2017,06,16,10,57,7.40
2017,06,16,10,58,7.50
2017,06,16,10,59,8.40
2017,06,16,11,00,8.10
2017,06,16,11,01,4.30
2017,06,16,11,02,8.90
2017,06,16,11,03,11.60
2017,06,16,11,04,5.90
2017,06,16,11,05,6.00
2017,06,16,11,06,11.90
2017,06,16,11,07,11.50
2017,06,16,11,08,8.10
2017,06,16,11,09,7.10
2017,06,16,11,10,6.10
2017,06,16,11,11,5.70
2017,06,16,11,12,7.90
2017,06,16,11,13,9.10
2017,06,16,11,14,7.90
2017,06,16,11,15,6.30
2017,06,16,11,16,8.20
2017,06,16,11,17,6.00
2017,06,16,11,18,10.00
2017,06,16,11,19,12.30
2017,06,16,11,20,10.10
2017,06,16,11,21,10.90
2017,06,16,11,22,10.00
2017,06,16,11,23,8.40
2017,06,16,11,24,10.30
2017,06,16,11,25,10.60
2017,06,16,11,26,7.00
2017,06,16,11,27,5.90
2017,06,16,11,28,7.30
2017,06,16,11,29,13.50
2017,06,16,11,30,12.80
2017,06,16,11,31,10.00
2017,06,16,11,32,4.90
2017,06,16,11,33,4.90
2017,06,16,11,34,6.30
2017,06,16,11,35,6.60
2017,06,16,11,36,8.80
2017,06,16,11,37,12.90
2017,06,16,11,38,12.30
2017,06,16,11,39,9.60
2017,06,16,11,40,7.40
2017,06,16,11,41,12.80
2017,06,16,11,42,10.00
2017,06,16,11,43,7.00
2017,06,16,11,44,4.50
2017,06,16,11,45,6.90
2017,06,16,11,46,11.20
2017,06,16,11,47,7.10
2017,06,16,11,48,12.80
2017,06,16,11,49,8.80
2017,06,16,11,50,6.80
2017,06,16,11,51,6.30
2017,06,16,11,52,8.30
2017,06,16,11,53,8.30
2017,06,16,11,54,5.50
2017,06,16,11,55,7.60
2017,06,16,11,56,5.50
2017,06,16,11,57,3.80
2017,06,16,11,58,8.10
2017,06,16,11,59,11.20
2017,06,16,12,00,12.00
2017,06,16,12,01,7.40
2017,06,16,12,02,6.30
2017,06,16,12,03,4.50
2017,06,16,12,04,5.40
2017,06,16,12,05,7.60
2017,06,16,12,06,8.30
2017,06,16,12,07,10.20
2017,06,16,12,08,13.50
2017,06,16,12,09,10.20
2017,06,16,12,10,13.60
2017,06,16,12,11,7.80
2017,06,16,12,12,7.60
2017,06,16,12,13,6.90
2017,06,16,12,14,6.40
2017,06,16,12,15,8.30
2017,06,16,12,16,10.00
2017,06,16,12,17,10.70
2017,06,16,12,18,10.40
2017,06,16,12,19,8.50
2017,06,16,12,20,8.20
2017,06,16,12,21,9.40
2017,06,16,12,22,7.90
2017,06,16,12,23,14.30
2017,06,16,12,24,11.40
2017,06,16,12,25,7.80
2017,06,16,12,26,14.20
2017,06,16,12,27,12.30
2017,06,16,12,28,11.30
2017,06,16,12,29,13.30
2017,06,16,12,30,11.80
2017,06,16,12,31,6.50
2017,06,16,12,32,6.20
2017,06,16,12,33,13.20
2017,06,16,12,34,11.10
2017,06,16,12,35,7.90
2017,06,16,12,36,8.50
2017,06,16,12,37,3.80
2017,06,16,12,38,8.10
2017,06,16,12,39,6.20
2017,06,16,12,40,13.50
2017,06,16,12,41,9.80
2017,06,16,12,42,7.80
2017,06,16,12,43,13.50
2017,06,16,12,44,10.00
2017,06,16,12,45,9.70
2017,06,16,12,46,9.20
2017,06,16,12,47,13.50
2017,06,16,12,48,10.70
2017,06,16,12,49,7.20
2017,06,16,12,50,11.60
2017,06,16,12,51,7.00
2017,06,16,12,52,13.10
2017,06,16,12,53,9.70
2017,06,16,12,54,7.80
2017,06,16,12,55,6.70
2017,06,16,12,56,7.10
2017,06,16,12,57,6.30
2017,06,16,12,58,4.50
2017,06,16,12,59,7.30
2017,06,16,13,00,8.10
2017,06,16,13,01,4.60
2017,06,16,13,02,4.20
2017,06,16,13,03,7.40
2017,06,16,13,04,11.00
2017,06,16,13,05,7.20
2017,06,16,13,06,8.90
2017,06,16,13,07,9.80
2017,06,16,13,08,6.30
2017,06,16,13,09,8.80
2017,06,16,13,10,8.70
2017,06,16,13,11,8.90
2017,06,16,13,12,10.40
2017,06,16,13,13,7.60
2017,06,16,13,14,10.40
2017,06,16,13,15,13.40
2017,06,16,13,16,10.10
2017,06,16,13,17,9.70
2017,06,16,13,18,11.70
2017,06,16,13,19,10.20
2017,06,16,13,20,13.20
2017,06,16,13,21,9.40
2017,06,16,13,22,12.40
2017,06,16,13,23,12.90
2017,06,16,13,24,9.80
2017,06,16,13,25,6.20
2017,06,16,13,26,9.60
2017,06,16,13,27,10.30
2017,06,16,13,28,7.00
2017,06,16,13,29,8.90
2017,06,16,13,30,9.70
2017,06,16,13,31,13.70
2017,06,16,13,32,11.60
2017,06,16,13,33,6.40
2017,06,16,13,34,8.10
2017,06,16,13,35,6.90
2017,06,16,13,36,9.70
2017,06,16,13,37,8.50
2017,06,16,13,38,7.80
2017,06,16,13,39,7.60
2017,06,16,13,40,5.80
2017,06,16,13,41,6.70
2017,06,16,13,42,8.80
2017,06,16,13,43,8.80
2017,06,16,13,44,7.50
2017,06,16,13,45,7.70
2017,06,16,13,46,4.50
2017,06,16,13,47,6.30
2017,06,16,13,48,10.50
2017,06,16,13,49,6.30
2017,06,16,13,50,7.90
2017,06,16,13,51,10.60
2017,06,16,13,52,4.70
2017,06,16,13,53,6.70
2017,06,16,13,54,8.90
2017,06,16,13,55,13.50
2017,06,16,13,56,10.70
2017,06,16,13,57,6.00
2017,06,16,13,58,5.00
2017,06,16,13,59,5.80
2017,06,16,14,00,6.40
2017,06,16,14,01,7.30
2017,06,16,14,02,10.00
2017,06,16,14,03,8.90
2017,06,16,14,04,9.00
2017,06,16,14,05,10.10
2017,06,16,14,06,2.90
2017,06,16,14,07,9.90
2017,06,16,14,08,8.20
2017,06,16,14,09,6.00
2017,06,16,14,10,7.80
2017,06,16,14,11,7.50
2017,06,16,14,12,6.70
2017,06,16,14,13,6.90
2017,06,16,14,14,9.40
2017,06,16,14,15,6.00
2017,06,16,14,16,9.10
2017,06,16,14,17,4.40
2017,06,16,14,18,4.60
2017,06,16,14,19,8.20
2017,06,16,14,20,5.40
2017,06,16,14,21,6.30
2017,06,16,14,22,5.50
2017,06,16,14,23,9.90
2017,06,16,14,24,8.80
2017,06,16,14,25,5.80
2017,06,16,14,26,10.30
2017,06,16,14,27,12.30
2017,06,16,14,28,8.90
2017,06,16,14,29,10.60
2017,06,16,14,30,9.20
2017,06,16,14,31,11.70
2017,06,16,14,32,12.00
2017,06,16,14,33,11.70
2017,06,16,14,34,12.00
2017,06,16,14,35,11.20
2017,06,16,14,36,11.90
2017,06,16,14,37,14.80
2017,06,16,14,38,13.60
2017,06,16,14,39,10.30
2017,06,16,14,40,11.00
2017,06,16,14,41,8.70
2017,06,16,14,42,9.50
2017,06,16,14,43,7.80
2017,06,16,14,44,6.50
2017,06,16,14,45,8.50
2017,06,16,14,46,11.50
2017,06,16,14,47,9.80
2017,06,16,14,48,10.20
2017,06,16,14,49,10.90
2017,06,16,14,50,11.90
2017,06,16,14,51,12.20
2017,06,16,14,52,12.10
2017,06,16,14,53,11.90
2017,06,16,14,54,12.60
2017,06,16,14,55,10.70
2017,06,16,14,56,11.10
2017,06,16,14,57,10.40
2017,06,16,14,58,8.00
2017,06,16,14,59,11.80
2017,06,16,15,00,10.30
2017,06,16,15,01,12.80
2017,06,16,15,02,11.30
2017,06,16,15,03,11.30
2017,06,16,15,04,11.50
2017,06,16,15,05,12.10
2017,06,16,15,06,10.80
2017,06,16,15,07,13.90
2017,06,16,15,08,10.10
2017,06,16,15,09,9.10
2017,06,16,15,10,9.00
2017,06,16,15,11,10.60
2017,06,16,15,12,13.40
2017,06,16,15,13,9.00
2017,06,16,15,14,12.40
2017,06,16,15,15,13.80
2017,06,16,15,16,10.60
2017,06,16,15,17,12.30
2017,06,16,15,18,7.50
2017,06,16,15,19,14.30
2017,06,16,15,20,10.10
2017,06,16,15,21,16.60
2017,06,16,15,22,13.90
2017,06,16,15,23,12.40
2017,06,16,15,24,12.20
2017,06,16,15,25,10.30
2017,06,16,15,26,11.80
2017,06,16,15,27,10.60
2017,06,16,15,28,11.00
2017,06,16,15,29,7.50
2017,06,16,15,30,5.40
2017,06,16,15,31,11.60
2017,06,16,15,32,10.30
2017,06,16,15,33,8.90
2017,06,16,15,34,5.20
2017,06,16,15,35,7.30
2017,06,16,15,36,7.40
2017,06,16,15,37,5.80
2017,06,16,15,38,7.60
2017,06,16,15,39,6.90
2017,06,16,15,40,4.60
2017,06,16,15,41,6.60
2017,06,16,15,42,2.90
2017,06,16,15,43,2.00
2017,06,16,15,44,2.40
2017,06,16,15,45,4.50
2017,06,16,15,46,5.60
2017,06,16,15,47,7.40
2017,06,16,15,48,6.10
2017,06,16,15,49,8.70
2017,06,16,15,50,5.80
2017,06,16,15,51,5.40
2017,06,16,15,52,9.70
2017,06,16,15,53,8.90
2017,06,16,15,54,10.30
2017,06,16,15,55,14.20
2017,06,16,15,56,11.90
2017,06,16,15,57,11.80
2017,06,16,15,58,7.80
2017,06,16,15,59,10.40
2017,06,16,16,00,9.80
2017,06,16,16,01,8.50
2017,06,16,16,02,9.40
2017,06,16,16,03,6.60
2017,06,16,16,04,7.90
2017,06,16,16,05,10.50
2017,06,16,16,06,10.70
2017,06,16,16,07,11.90
2017,06,16,16,08,12.90
2017,06,16,16,09,11.50
2017,06,16,16,10,9.10
2017,06,16,16,11,11.10
2017,06,16,16,12,10.70
2017,06,16,16,13,9.70
2017,06,16,16,14,9.30
2017,06,16,16,15,10.70
2017,06,16,16,16,8.60
2017,06,16,16,17,9.30
2017,06,16,16,18,8.00
2017,06,16,16,19,8.20
2017,06,16,16,20,11.30
2017,06,16,16,21,8.90
2017,06,16,16,22,8.90
2017,06,16,16,23,7.80
2017,06,16,16,24,7.00
2017,06,16,16,25,5.20
2017,06,16,16,26,7.30
2017,06,16,16,27,10.00
2017,06,16,16,28,8.70
2017,06,16,16,29,7.30
2017,06,16,16,30,6.10
2017,06,16,16,31,6.10
2017,06,16,16,32,5.30
2017,06,16,16,33,4.90
2017,06,16,16,34,5.00
2017,06,16,16,35,6.10
2017,06,16,16,36,3.70
2017,06,16,16,37,3.70
2017,06,16,16,38,4.10
2017,06,16,16,39,1.50
2017,06,16,16,40,1.60
2017,06,16,16,41,0.70
2017,06,16,16,42,1.60
2017,06,16,16,43,3.90
2017,06,16,16,44,2.40
2017,06,16,16,45,3.00
2017,06,16,16,46,4.60
2017,06,16,16,47,4.40
2017,06,16,16,48,2.80
2017,06,16,16,49,4.50
2017,06,16,16,50,2.70
2017,06,16,16,51,2.40
2017,06,16,16,52,2.50
2017,06,16,16,53,1.30
2017,06,16,16,54,1.40
2017,06,16,16,55,3.40
2017,06,16,16,56,4.70
2017,06,16,16,57,3.40
2017,06,16,16,58,3.20
2017,06,16,16,59,3.90
2017,06,16,17,00,4.20
2017,06,16,17,01,3.30
2017,06,16,17,02,1.90
2017,06,16,17,03,1.50
2017,06,16,17,04,2.30
2017,06,16,17,05,0.30
2017,06,16,17,06,0.70
2017,06,16,17,07,2.60
2017,06,16,17,08,4.50
2017,06,16,17,09,4.90
2017,06,16,17,10,5.20
2017,06,16,17,11,3.50
2017,06,16,17,12,3.20
2017,06,16,17,13,3.70
2017,06,16,17,14,2.40
2017,06,16,17,15,2.30
2017,06,16,17,16,2.20
2017,06,16,17,17,2.40
2017,06,16,17,18,1.80
2017,06,16,17,19,0.10
2017,06,16,17,20,0.00
2017,06,16,17,21,0.00
2017,06,16,17,22,0.00
2017,06,16,17,23,0.00
2017,06,16,17,24,0.00
2017,06,16,17,25,0.10
2017,06,16,17,26,2.70
2017,06,16,17,27,0.70
2017,06,16,17,28,0.80
2017,06,16,17,29,1.50
2017,06,16,17,30,3.20
2017,06,16,17,31,4.90
2017,06,16,17,32,9.70
2017,06,16,17,33,7.40
2017,06,16,17,34,4.80
2017,06,16,17,35,2.90
2017,06,16,17,36,2.10
2017,06,16,17,37,4.00
2017,06,16,17,38,5.40
2017,06,16,17,39,5.10
2017,06,16,17,40,4.80
2017,06,16,17,41,5.50
2017,06,16,17,42,3.80
2017,06,16,17,43,3.00
2017,06,16,17,44,4.90
2017,06,16,17,45,2.70
2017,06,16,17,46,0.90
2017,06,16,17,47,0.00
2017,06,16,17,48,0.00
2017,06,16,17,49,1.40
2017,06,16,17,50,1.20
2017,06,16,17,51,0.00
2017,06,16,17,52,0.00
2017,06,16,17,53,0.00
2017,06,16,17,54,0.00
2017,06,16,17,55,2.30
2017,06,16,17,56,7.80
2017,06,16,17,57,5.00
2017,06,16,17,58,6.00